N12KR KDAL-KSAV

Flight info

Callsign N12KR
Flight time 1h 33m
Altitude 45000
Route LNDRE5 ZALEA MEI EWA MGM VNA LOTTS
Aircraft GLF6/M-SBDE2E3FGHIJ4J5M1RWXY/LB1D1

Departure

Time 2026-04-28 23:19
Airport Dallas Love Field (KDAL)

Arrival

Time 2026-04-29 00:52
Airport Savannah Hilton Head International Airport (KSAV)
Time Latitude Longitude Altitude Speed Heading
2026-04-28 23:15 32.85763 -96.85149 494 ft 0 kts 315°
2026-04-28 23:16 32.85764 -96.85150 494 ft 2 kts 315°
2026-04-28 23:16 32.85760 -96.85202 494 ft 12 kts 220°
2026-04-28 23:17 32.85679 -96.85241 494 ft 16 kts 196°
2026-04-28 23:17 32.85558 -96.85273 493 ft 13 kts 246°
2026-04-28 23:17 32.85655 -96.85404 494 ft 25 kts 315°
2026-04-28 23:17 32.85771 -96.85550 494 ft 9 kts 299°
2026-04-28 23:18 32.85747 -96.85632 494 ft 16 kts 225°
2026-04-28 23:18 32.85664 -96.85607 494 ft 18 kts 135°
2026-04-28 23:18 32.85380 -96.85278 494 ft 110 kts 135°
2026-04-28 23:18 32.84662 -96.84451 1007 ft 157 kts 138°
2026-04-28 23:19 32.83836 -96.83573 2026 ft 181 kts 141°
2026-04-28 23:19 32.82887 -96.82561 2823 ft 183 kts 142°
2026-04-28 23:19 32.81911 -96.81520 3703 ft 202 kts 142°
2026-04-28 23:19 32.80790 -96.80323 4352 ft 235 kts 142°
2026-04-28 23:20 32.79489 -96.78925 5010 ft 270 kts 141°
2026-04-28 23:20 32.78042 -96.77357 5650 ft 290 kts 141°
2026-04-28 23:20 32.76542 -96.75727 6375 ft 292 kts 142°
2026-04-28 23:20 32.75074 -96.74070 7084 ft 297 kts 140°
2026-04-28 23:21 32.73592 -96.72354 7813 ft 298 kts 141°
2026-04-28 23:21 32.72101 -96.70631 8541 ft 301 kts 141°
2026-04-28 23:21 32.70599 -96.68880 9263 ft 305 kts 141°
2026-04-28 23:21 32.69133 -96.67082 9962 ft 314 kts 135°
2026-04-28 23:22 32.68129 -96.64646 10722 ft 348 kts 111°
2026-04-28 23:22 32.67518 -96.61767 11476 ft 372 kts 105°
2026-04-28 23:22 32.67009 -96.58705 12211 ft 394 kts 103°
2026-04-28 23:22 32.66531 -96.55453 12954 ft 412 kts 101°
2026-04-28 23:23 32.66055 -96.52017 13706 ft 430 kts 101°
2026-04-28 23:23 32.65570 -96.48460 14465 ft 444 kts 101°
2026-04-28 23:23 32.65081 -96.44840 15210 ft 450 kts 101°
2026-04-28 23:23 32.64581 -96.41148 15962 ft 454 kts 100°
2026-04-28 23:24 32.64085 -96.37474 16716 ft 458 kts 100°
2026-04-28 23:24 32.63571 -96.33693 17738 ft 466 kts 101°
2026-04-28 23:24 32.63061 -96.29943 18874 ft 470 kts 100°
2026-04-28 23:24 32.62535 -96.26090 19750 ft 481 kts 101°
2026-04-28 23:25 32.62000 -96.22166 20877 ft 485 kts 101°
2026-04-28 23:25 32.61455 -96.18194 21758 ft 494 kts 100°
2026-04-28 23:25 32.60903 -96.14176 22650 ft 502 kts 100°
2026-04-28 23:25 32.60337 -96.10071 23484 ft 511 kts 100°
2026-04-28 23:26 32.59764 -96.05930 24320 ft 520 kts 100°
2026-04-28 23:26 32.59176 -96.01667 25136 ft 530 kts 101°
2026-04-28 23:26 32.58579 -95.97376 25995 ft 536 kts 100°
2026-04-28 23:26 32.57968 -95.92979 26633 ft 548 kts 101°
2026-04-28 23:27 32.57341 -95.88493 27361 ft 555 kts 100°
2026-04-28 23:27 32.56713 -95.83995 28168 ft 560 kts 100°
2026-04-28 23:27 32.56068 -95.79408 28774 ft 569 kts 101°
2026-04-28 23:27 32.55415 -95.74769 29402 ft 576 kts 99°
2026-04-28 23:28 32.54752 -95.70066 30096 ft 582 kts 99°
2026-04-28 23:28 32.54081 -95.65327 30732 ft 588 kts 99°
2026-04-28 23:28 32.53405 -95.60548 31319 ft 594 kts 99°
2026-04-28 23:28 32.52719 -95.55745 31912 ft 599 kts 98°
2026-04-28 23:29 32.52025 -95.50881 32563 ft 602 kts 98°
2026-04-28 23:29 32.51329 -95.46021 33409 ft 601 kts 98°
2026-04-28 23:29 32.50633 -95.41148 34265 ft 601 kts 97°
2026-04-28 23:29 32.49941 -95.36355 35235 ft 597 kts 97°
2026-04-28 23:30 32.49252 -95.31566 36189 ft 594 kts 97°
2026-04-28 23:30 32.48559 -95.26754 36711 ft 598 kts 98°
2026-04-28 23:30 32.47849 -95.21881 37459 ft 597 kts 97°
2026-04-28 23:30 32.47152 -95.17084 38278 ft 595 kts 98°
2026-04-28 23:31 32.46450 -95.12275 38801 ft 597 kts 98°
2026-04-28 23:31 32.45746 -95.07471 39467 ft 596 kts 97°
2026-04-28 23:31 32.45041 -95.02660 40482 ft 589 kts 97°
2026-04-28 23:31 32.44350 -94.97952 41452 ft 582 kts 98°
2026-04-28 23:32 32.43660 -94.93259 42309 ft 576 kts 99°
2026-04-28 23:32 32.42968 -94.88593 42781 ft 577 kts 99°
2026-04-28 23:32 32.42279 -94.83960 43436 ft 572 kts 99°
2026-04-28 23:32 32.41602 -94.79386 44098 ft 568 kts 99°
2026-04-28 23:33 32.40914 -94.74788 44568 ft 567 kts 99°
2026-04-28 23:33 32.40231 -94.70200 44900 ft 569 kts 100°
2026-04-28 23:33 32.38840 -94.60944 44888 ft 577 kts 99°
2026-04-28 23:34 32.37432 -94.51611 44901 ft 581 kts 100°
2026-04-28 23:34 32.36013 -94.42230 44914 ft 582 kts 100°
2026-04-28 23:35 32.34578 -94.32819 44863 ft 584 kts 100°
2026-04-28 23:35 32.33139 -94.23442 44877 ft 585 kts 100°
2026-04-28 23:36 32.31690 -94.14010 44885 ft 586 kts 101°
2026-04-28 23:36 32.30227 -94.04549 44891 ft 587 kts 100°
2026-04-28 23:37 32.28751 -93.95055 44893 ft 589 kts 100°
2026-04-28 23:37 32.27274 -93.85615 44884 ft 589 kts 101°
2026-04-28 23:38 32.25776 -93.76088 44890 ft 590 kts 101°
2026-04-28 23:38 32.24285 -93.66640 44883 ft 589 kts 101°
2026-04-28 23:39 32.22781 -93.57175 44900 ft 588 kts 101°
2026-04-28 23:39 32.21382 -93.47682 44870 ft 587 kts 92°
2026-04-28 23:40 32.21765 -93.38151 44853 ft 586 kts 84°
2026-04-28 23:40 32.22282 -93.28571 44877 ft 585 kts 85°
2026-04-28 23:41 32.22778 -93.19036 44875 ft 586 kts 85°
2026-04-28 23:41 32.23268 -93.09451 44885 ft 585 kts 86°
2026-04-28 23:42 32.23751 -92.99940 44900 ft 585 kts 85°
2026-04-28 23:42 32.24231 -92.90321 44906 ft 586 kts 85°
2026-04-28 23:43 32.24698 -92.80762 44913 ft 586 kts 85°
2026-04-28 23:43 32.25160 -92.71222 44916 ft 585 kts 85°
2026-04-28 23:44 32.25612 -92.61671 44911 ft 585 kts 85°
2026-04-28 23:44 32.26064 -92.52073 44914 ft 585 kts 85°
2026-04-28 23:45 32.26502 -92.42536 44903 ft 585 kts 85°
2026-04-28 23:45 32.26934 -92.32975 44912 ft 585 kts 86°
2026-04-28 23:46 32.27361 -92.23411 44907 ft 584 kts 85°
2026-04-28 23:46 32.27775 -92.13889 44906 ft 584 kts 85°
2026-04-28 23:47 32.28188 -92.04328 44903 ft 583 kts 86°
2026-04-28 23:47 32.28591 -91.94795 44911 ft 583 kts 86°
2026-04-28 23:48 32.28986 -91.85326 44899 ft 583 kts 85°
2026-04-28 23:48 32.29374 -91.75781 44908 ft 584 kts 85°
2026-04-28 23:49 32.29756 -91.66200 44897 ft 583 kts 84°
2026-04-28 23:49 32.30129 -91.56660 44906 ft 582 kts 85°
2026-04-28 23:50 32.30496 -91.47131 44888 ft 582 kts 85°
2026-04-28 23:50 32.30853 -91.37635 44897 ft 582 kts 84°
2026-04-28 23:51 32.31202 -91.28168 44885 ft 580 kts 85°
2026-04-28 23:51 32.31549 -91.18630 44892 ft 580 kts 85°
2026-04-28 23:52 32.31884 -91.09161 44898 ft 579 kts 85°
2026-04-28 23:52 32.32215 -90.99675 44909 ft 580 kts 85°
2026-04-28 23:53 32.32538 -90.90221 44912 ft 579 kts 85°
2026-04-28 23:53 32.32852 -90.80750 44913 ft 578 kts 85°
2026-04-28 23:54 32.33157 -90.71240 44899 ft 579 kts 85°
2026-04-28 23:54 32.33459 -90.61779 44901 ft 579 kts 85°
2026-04-28 23:55 32.33755 -90.52309 44927 ft 580 kts 85°
2026-04-28 23:55 32.34040 -90.42777 44960 ft 581 kts 85°
2026-04-28 23:56 32.34321 -90.33279 44936 ft 582 kts 85°
2026-04-28 23:56 32.34593 -90.23787 44944 ft 582 kts 86°
2026-04-28 23:57 32.34862 -90.14220 44950 ft 581 kts 85°
2026-04-28 23:57 32.35118 -90.04742 44937 ft 582 kts 85°
2026-04-28 23:58 32.35390 -89.95233 44941 ft 582 kts 85°
2026-04-28 23:58 32.35671 -89.85638 44914 ft 583 kts 85°
2026-04-28 23:59 32.35944 -89.76118 44924 ft 583 kts 85°
2026-04-28 23:59 32.36212 -89.66557 44900 ft 583 kts 86°
2026-04-29 00:00 32.36472 -89.56995 44896 ft 584 kts 85°
2026-04-29 00:00 32.36725 -89.47422 44894 ft 586 kts 85°
2026-04-29 00:01 32.36973 -89.37843 44940 ft 586 kts 85°
2026-04-29 00:01 32.37210 -89.28264 44939 ft 586 kts 86°
2026-04-29 00:02 32.37444 -89.18605 44925 ft 587 kts 86°
2026-04-29 00:02 32.37667 -89.08981 44931 ft 588 kts 86°
2026-04-29 00:03 32.37888 -88.99367 44951 ft 589 kts 85°
2026-04-29 00:03 32.38099 -88.89679 44981 ft 589 kts 86°
2026-04-29 00:04 32.38302 -88.80019 44983 ft 589 kts 86°
2026-04-29 00:04 32.38499 -88.70383 44976 ft 589 kts 86°
2026-04-29 00:05 32.38688 -88.60774 44994 ft 588 kts 86°
2026-04-29 00:05 32.38868 -88.51095 45012 ft 587 kts 86°
2026-04-29 00:06 32.39042 -88.41486 45000 ft 586 kts 86°
2026-04-29 00:06 32.39209 -88.31943 44993 ft 584 kts 88°
2026-04-29 00:07 32.39365 -88.22428 44984 ft 582 kts 87°
2026-04-29 00:07 32.39514 -88.12909 44970 ft 580 kts 87°
2026-04-29 00:08 32.39659 -88.03427 44968 ft 577 kts 87°
2026-04-29 00:08 32.39794 -87.93926 44983 ft 576 kts 87°
2026-04-29 00:09 32.39923 -87.84494 44976 ft 575 kts 86°
2026-04-29 00:09 32.40045 -87.75088 45004 ft 576 kts 87°
2026-04-29 00:10 32.40158 -87.65653 45012 ft 576 kts 87°
2026-04-29 00:10 32.40263 -87.56195 45011 ft 574 kts 86°
2026-04-29 00:11 32.40364 -87.46828 45019 ft 574 kts 87°
2026-04-29 00:12 32.40501 -87.32717 45027 ft 572 kts 87°
2026-04-29 00:12 32.40583 -87.23322 45007 ft 572 kts 88°
2026-04-29 00:13 32.40659 -87.13946 45035 ft 573 kts 87°
2026-04-29 00:13 32.40723 -87.04596 45037 ft 573 kts 87°
2026-04-29 00:14 32.40786 -86.95175 45058 ft 573 kts 87°
2026-04-29 00:14 32.40841 -86.85822 45048 ft 573 kts 86°
2026-04-29 00:15 32.40888 -86.76369 45059 ft 575 kts 88°
2026-04-29 00:15 32.40928 -86.66952 45030 ft 575 kts 87°
2026-04-29 00:16 32.40961 -86.57564 45002 ft 575 kts 87°
2026-04-29 00:16 32.40989 -86.48112 45047 ft 578 kts 88°
2026-04-29 00:17 32.41007 -86.38638 45054 ft 579 kts 86°
2026-04-29 00:17 32.41021 -86.29093 45019 ft 580 kts 88°
2026-04-29 00:18 32.41023 -86.19579 45015 ft 582 kts 88°
2026-04-29 00:18 32.41022 -86.10092 45043 ft 583 kts 88°
2026-04-29 00:19 32.41014 -86.00539 45051 ft 584 kts 88°
2026-04-29 00:19 32.40997 -85.90932 45035 ft 585 kts 87°
2026-04-29 00:20 32.40974 -85.81344 45065 ft 585 kts 88°
2026-04-29 00:20 32.40942 -85.71714 45050 ft 587 kts 87°
2026-04-29 00:21 32.40903 -85.62125 45037 ft 585 kts 87°
2026-04-29 00:21 32.40859 -85.52519 45042 ft 585 kts 87°
2026-04-29 00:22 32.40808 -85.42988 45051 ft 585 kts 87°
2026-04-29 00:22 32.40745 -85.33359 45034 ft 584 kts 88°
2026-04-29 00:23 32.40678 -85.23824 45036 ft 584 kts 88°
2026-04-29 00:23 32.40605 -85.14262 45036 ft 583 kts 88°
2026-04-29 00:24 32.40522 -85.04668 45059 ft 582 kts 87°
2026-04-29 00:24 32.40435 -84.95125 45062 ft 583 kts 88°
2026-04-29 00:25 32.40337 -84.85597 45062 ft 582 kts 87°
2026-04-29 00:25 32.40245 -84.76843 45048 ft 583 kts 87°
2026-04-29 00:25 32.40191 -84.72100 44943 ft 577 kts 88°
2026-04-29 00:26 32.40135 -84.67396 44857 ft 569 kts 88°
2026-04-29 00:26 32.40022 -84.58186 44698 ft 559 kts 88°
2026-04-29 00:27 32.39905 -84.49013 44556 ft 561 kts 88°
2026-04-29 00:27 32.39780 -84.39767 44184 ft 567 kts 88°
2026-04-29 00:27 32.39712 -84.35100 43625 ft 567 kts 88°
2026-04-29 00:28 32.39644 -84.30511 43004 ft 560 kts 88°
2026-04-29 00:28 32.39578 -84.25935 42409 ft 553 kts 88°
2026-04-29 00:28 32.39507 -84.21441 41801 ft 546 kts 88°
2026-04-29 00:28 32.39438 -84.17005 41205 ft 541 kts 88°
2026-04-29 00:29 32.39368 -84.12624 40562 ft 537 kts 88°
2026-04-29 00:29 32.39297 -84.08212 39949 ft 536 kts 88°
2026-04-29 00:29 32.39223 -84.03799 39362 ft 533 kts 88°
2026-04-29 00:29 32.39149 -83.99454 38741 ft 532 kts 88°
2026-04-29 00:30 32.39074 -83.95113 38160 ft 534 kts 89°
2026-04-29 00:30 32.38996 -83.90714 37576 ft 535 kts 89°
2026-04-29 00:30 32.38918 -83.86351 37003 ft 537 kts 89°
2026-04-29 00:30 32.38835 -83.81952 36426 ft 539 kts 89°
2026-04-29 00:31 32.38753 -83.77555 35833 ft 540 kts 89°
2026-04-29 00:31 32.38669 -83.73128 35240 ft 540 kts 89°
2026-04-29 00:31 32.38582 -83.68650 34640 ft 544 kts 89°
2026-04-29 00:31 32.38493 -83.64190 34043 ft 545 kts 89°
2026-04-29 00:32 32.38403 -83.59730 33452 ft 547 kts 89°
2026-04-29 00:32 32.38312 -83.55284 32877 ft 549 kts 89°
2026-04-29 00:32 32.38217 -83.50736 32270 ft 549 kts 89°
2026-04-29 00:32 32.38122 -83.46236 31665 ft 548 kts 90°
2026-04-29 00:33 32.38025 -83.41804 31066 ft 548 kts 90°
2026-04-29 00:33 32.37927 -83.37305 30468 ft 548 kts 90°
2026-04-29 00:33 32.37826 -83.32791 29856 ft 542 kts 90°
2026-04-29 00:33 32.37725 -83.28367 29258 ft 537 kts 90°
2026-04-29 00:34 32.37624 -83.24004 28681 ft 532 kts 90°
2026-04-29 00:34 32.37524 -83.19694 28104 ft 527 kts 90°
2026-04-29 00:34 32.37422 -83.15365 27528 ft 521 kts 91°
2026-04-29 00:34 32.37319 -83.11124 26957 ft 516 kts 90°
2026-04-29 00:35 32.37218 -83.06942 26395 ft 511 kts 90°
2026-04-29 00:35 32.37114 -83.02754 25832 ft 507 kts 90°
2026-04-29 00:35 32.37012 -82.98662 25281 ft 504 kts 90°
2026-04-29 00:35 32.36907 -82.94538 24728 ft 499 kts 90°
2026-04-29 00:36 32.36802 -82.90448 24174 ft 496 kts 90°
2026-04-29 00:36 32.36697 -82.86433 23638 ft 493 kts 90°
2026-04-29 00:36 32.36592 -82.82398 23096 ft 488 kts 90°
2026-04-29 00:36 32.36485 -82.78414 22566 ft 484 kts 90°
2026-04-29 00:37 32.36380 -82.74476 22044 ft 479 kts 90°
2026-04-29 00:37 32.36272 -82.70574 21523 ft 475 kts 90°
2026-04-29 00:37 32.36167 -82.66743 21004 ft 469 kts 90°
2026-04-29 00:37 32.36060 -82.62892 20490 ft 465 kts 90°
2026-04-29 00:38 32.35953 -82.59099 19982 ft 462 kts 90°
2026-04-29 00:38 32.35847 -82.55340 19478 ft 456 kts 90°
2026-04-29 00:38 32.35738 -82.51608 18978 ft 453 kts 90°
2026-04-29 00:38 32.35632 -82.47930 18460 ft 449 kts 90°
2026-04-29 00:39 32.35525 -82.44282 17903 ft 445 kts 89°
2026-04-29 00:39 32.35417 -82.40664 17390 ft 440 kts 89°
2026-04-29 00:39 32.35310 -82.37061 16898 ft 437 kts 89°
2026-04-29 00:39 32.35202 -82.33498 16405 ft 434 kts 90°
2026-04-29 00:40 32.35095 -82.29960 15936 ft 429 kts 90°
2026-04-29 00:40 32.34988 -82.26481 15480 ft 427 kts 90°
2026-04-29 00:40 32.34878 -82.22957 15007 ft 424 kts 90°
2026-04-29 00:40 32.34780 -82.19518 14327 ft 423 kts 90°
2026-04-29 00:41 32.34159 -82.16122 13349 ft 423 kts 107°
2026-04-29 00:41 32.33217 -82.12887 12683 ft 413 kts 108°
2026-04-29 00:41 32.32290 -82.09741 12171 ft 408 kts 108°
2026-04-29 00:41 32.31351 -82.06561 11707 ft 405 kts 108°
2026-04-29 00:42 32.30426 -82.03441 11264 ft 406 kts 108°
2026-04-29 00:42 32.29504 -82.00328 10817 ft 402 kts 108°
2026-04-29 00:42 32.28598 -81.97276 10377 ft 388 kts 108°
2026-04-29 00:42 32.27711 -81.94292 9948 ft 376 kts 108°
2026-04-29 00:43 32.26860 -81.91426 9539 ft 364 kts 109°
2026-04-29 00:43 32.26034 -81.88653 9147 ft 355 kts 109°
2026-04-29 00:43 32.25226 -81.85939 8757 ft 346 kts 109°
2026-04-29 00:43 32.24446 -81.83321 8387 ft 338 kts 109°
2026-04-29 00:44 32.23667 -81.80711 8013 ft 330 kts 109°
2026-04-29 00:44 32.22918 -81.78204 7654 ft 324 kts 109°
2026-04-29 00:44 32.22182 -81.75741 7303 ft 317 kts 109°
2026-04-29 00:44 32.21450 -81.73295 6961 ft 311 kts 109°
2026-04-29 00:45 32.20738 -81.70913 6616 ft 306 kts 109°
2026-04-29 00:45 32.20035 -81.68567 6282 ft 301 kts 109°
2026-04-29 00:45 32.19344 -81.66263 5962 ft 297 kts 109°
2026-04-29 00:45 32.18660 -81.63986 5632 ft 293 kts 109°
2026-04-29 00:46 32.17987 -81.61745 5300 ft 289 kts 109°
2026-04-29 00:46 32.17321 -81.59530 4986 ft 285 kts 109°
2026-04-29 00:46 32.16658 -81.57327 4674 ft 283 kts 109°
2026-04-29 00:46 32.16008 -81.55167 4364 ft 279 kts 109°
2026-04-29 00:47 32.15360 -81.53011 4061 ft 278 kts 109°
2026-04-29 00:47 32.14713 -81.50865 3746 ft 275 kts 109°
2026-04-29 00:47 32.14075 -81.48753 3445 ft 274 kts 109°
2026-04-29 00:47 32.13449 -81.46676 3145 ft 270 kts 109°
2026-04-29 00:48 32.12992 -81.44565 2975 ft 258 kts 90°
2026-04-29 00:48 32.13022 -81.42526 2975 ft 243 kts 88°
2026-04-29 00:48 32.13032 -81.40629 3021 ft 222 kts 89°
2026-04-29 00:48 32.13029 -81.38828 2781 ft 217 kts 89°
2026-04-29 00:49 32.13018 -81.37058 2520 ft 213 kts 89°
2026-04-29 00:49 32.13004 -81.35333 2252 ft 210 kts 89°
2026-04-29 00:49 32.12984 -81.33659 2013 ft 189 kts 91°
2026-04-29 00:49 32.12967 -81.32250 1762 ft 157 kts 91°
2026-04-29 00:50 32.12958 -81.31067 1536 ft 136 kts 91°
2026-04-29 00:50 32.12947 -81.29957 1367 ft 134 kts 92°
2026-04-29 00:50 32.12937 -81.28857 1200 ft 135 kts 92°
2026-04-29 00:50 32.12928 -81.27763 1031 ft 134 kts 92°
2026-04-29 00:51 32.12918 -81.26653 853 ft 134 kts 92°
2026-04-29 00:51 32.12909 -81.25571 678 ft 133 kts 92°
2026-04-29 00:51 32.12899 -81.24475 505 ft 132 kts 92°
2026-04-29 00:51 32.12889 -81.23406 335 ft 131 kts 92°
2026-04-29 00:52 32.12879 -81.22333 165 ft 130 kts 92°
2026-04-29 00:52 32.12869 -81.21300 55 ft 114 kts 91°
2026-04-29 00:52 32.12866 -81.20643 55 ft 51 kts 88°
2026-04-29 00:52 32.12866 -81.20376 55 ft 14 kts 74°
2026-04-29 00:53 32.12962 -81.20332 55 ft 18 kts
2026-04-29 00:53 32.13108 -81.20327 55 ft 23 kts 358°
2026-04-29 00:53 32.13294 -81.20331 55 ft 29 kts 359°
2026-04-29 00:53 32.13517 -81.20333 55 ft 32 kts
2026-04-29 00:54 32.13737 -81.20334 55 ft 30 kts
2026-04-29 00:54 32.13862 -81.20370 55 ft 17 kts 288°
2026-04-29 00:54 32.13866 -81.20512 55 ft 17 kts 270°
2026-04-29 00:54 32.13866 -81.20648 55 ft 16 kts 275°
2026-04-29 00:55 32.13872 -81.20780 55 ft 15 kts 271°
2026-04-29 00:55 32.13907 -81.20795 55 ft 1 kts 86°